Temp
21 21 20 20 19 19 19 19 19 19 19 19 19 18 18 19 19 18 18 19 19 19 18 19 20 20 20 20 20 20 19 20 19 16 16 15 14 13 13 13 13 13 13
22 22 21 21 20 20 20 19 19 19 19 19 18 19 18 18 18 19 19 19 18 19 18 19 20 20 19 19 20 20 20 20 19 17 16 15 15 14 14 14 13 12 13
23 22 22 21 21 20 20 20 19 19 19 19 18 18 18 19 19 19 19 19 18 18 18 19 19 19 19 18 19 19 19 18 18 18 16 15 15 14 14 14 13 13 13
24 23 22 21 21 20 20 20 20 19 19 18 18 19 19 19 19 19 18 19 19 17 18 19 18 18 18 18 18 19 19 18 17 17 17 15 15 14 14 14 15 14 14
24 23 22 21 21 21 20 19 19 19 19 19 19 18 18 18 19 19 18 18 18 17 18 18 17 17 18 18 18 18 18 18 17 17 17 16 16 15 15 14 15 15 14
24 24 23 22 21 20 20 19 19 19 19 18 18 18 18 18 18 19 18 17 17 19 18 18 17 18 17 18 17 17 18 18 17 18 17 17 16 16 15 15 15 15 14
24 23 23 22 21 20 19 19 19 19 19 18 18 18 18 17 18 18 18 18 18 18 18 18 18 18 18 18 17 17 17 17 18 18 18 17 17 17 16 15 16 15 15
24 23 22 21 20 20 19 19 19 19 19 19 19 18 18 18 18 18 18 18 18 19 18 18 17 17 18 18 17 17 17 17 17 18 17 17 17 16 16 16 16 15 15
22 22 22 21 20 20 19 19 19 18 18 19 18 18 18 18 18 18 18 18 18 17 17 18 17 17 17 18 17 17 17 17 17 18 17 17 17 17 17 16 15 15 15
22 22 21 20 20 19 19 19 18 18 19 19 18 18 18 18 19 19 18 18 16 17 19 19 19 18 17 18 17 16 16 18 17 18 18 17 17 18 17 17 15 16 15
21 21 20 20 20 19 19 19 19 19 18 18 18 18 17 19 19 19 19 18 17 18 19 19 19 18 18 18 17 17 16 17 18 18 18 17 17 17 17 16 15 15 15
21 20 20 20 19 18 19 19 19 18 18 18 18 18 18 19 18 19 18 18 17 17 19 18 19 19 18 18 18 18 17 16 18 18 18 17 17 17 17 17 16 16 15
20 20 21 20 20 18 19 19 18 18 18 18 18 18 17 19 18 19 18 18 17 18 18 18 19 17 18 18 18 18 17 15 16 17 17 16 16 16 16 16 16 16 16
20 20 21 21 20 19 19 20 19 19 18 18 18 19 19 18 19 18 18 18 18 18 17 17 16 16 16 18 17 17 17 18 17 17 17 17 16 16 16 15 15 15 15
21 20 20 20 20 19 19 21 21 20 20 19 20 20 20 18 19 20 19 19 19 18 17 17 16 16 16 16 17 17 17 18 18 19 18 16 16 16 16 16 16 15 15
20 20 20 20 19 19 19 19 21 20 19 20 19 19 19 20 19 19 19 18 18 18 17 16 16 16 16 17 17 18 19 19 19 19 19 18 17 16 16 16 16 16 15
21 21 20 20 20 20 20 19 19 19 20 20 20 20 19 19 19 18 19 19 18 17 17 17 17 15 15 16 17 19 20 20 20 19 19 19 18 16 16 16 16 16 15
20 21 21 21 21 22 21 21 20 20 20 20 20 20 20 19 19 19 19 18 17 17 17 17 17 17 16 17 18 19 18 18 17 18 18 18 17 16 16 16 16 16 16
20 21 21 19 20 20 22 21 21 21 21 21 21 20 20 19 19 19 18 18 18 17 18 17 17 16 17 17 17 17 17 17 17 17 17 17 17 17 16 16 16 16 16
19 20 21 21 21 22 22 20 20 19 21 22 21 20 21 20 19 18 18 18 18 18 18 18 18 17 18 17 18 18 18 18 18 18 18 17 18 17 17 17 16 16 16
19 19 19 20 19 21 19 20 20 19 16 19 22 21 21 22 21 19 19 18 18 19 19 18 20 19 19 19 19 18 18 19 18 19 19 18 18 17 17 17 16 16 16
17 20 19 19 19 19 19 19 20 18 18 15 23 23 22 22 22 22 20 19 20 20 19 20 19 19 20 20 19 18 19 18 19 18 18 18 18 18 18 17 17 17 17
17 17 18 19 19 19 18 18 21 19 18 14 20 20 21 22 23 22 22 22 21 21 21 20 18 18 18 18 19 19 19 19 20 19 19 18 18 18 18 17 17 17 17
18 18 18 18 19 19 17 16 16 16 18 18 18 18 20 17 17 21 23 22 22 21 21 21 20 20 19 18 19 19 19 19 19 19 19 19 19 18 18 18 18 18 17
18 18 19 19 19 19 18 19 19 20 21 21 22 22 18 17 18 15 21 21 21 21 21 20 20 20 20 20 21 21 20 20 20 19 19 19 19 19 18 18 18 18 18
17 18 19 19 19 20 19 19 19 20 20 18 18 18 19 18 16 15 16 21 21 21 21 21 21 21 21 21 21 21 21 21 20 20 19 19 19 18 18 18 18 17 17
Height
1524 1527 1528 1531 1534 1536 1538 1539 1542 1544 1545 1548 1550 1552 1554 1556 1557 1560 1562 1566 1568 1571 1572 1573 1574 1576 1577 1577 1579 1580 1579 1579 1581 1585 1588 1589 1590 1591 1592 1592 1593 1594 1594
1521 1524 1525 1527 1529 1531 1534 1535 1538 1540 1542 1544 1547 1548 1550 1552 1555 1558 1560 1563 1565 1567 1569 1570 1571 1573 1574 1575 1577 1579 1578 1576 1578 1580 1585 1587 1589 1591 1592 1593 1593 1592 1594
1515 1518 1522 1524 1527 1529 1530 1530 1534 1535 1538 1539 1542 1544 1546 1549 1552 1555 1557 1559 1562 1563 1565 1567 1568 1569 1572 1572 1575 1576 1578 1577 1577 1579 1583 1586 1587 1589 1591 1592 1593 1592 1594
1511 1513 1517 1520 1523 1526 1528 1527 1529 1531 1533 1535 1538 1541 1542 1545 1548 1551 1554 1556 1559 1560 1562 1564 1565 1567 1569 1570 1573 1574 1576 1578 1577 1580 1582 1583 1585 1586 1589 1591 1592 1593 1592
1508 1510 1512 1515 1519 1522 1523 1524 1525 1527 1529 1531 1533 1537 1540 1544 1545 1548 1550 1554 1556 1557 1560 1561 1563 1565 1566 1567 1569 1572 1574 1576 1578 1579 1581 1581 1583 1584 1586 1588 1589 1591 1591
1502 1507 1508 1511 1515 1517 1520 1521 1521 1523 1525 1527 1529 1534 1537 1541 1544 1546 1547 1550 1553 1554 1555 1558 1560 1562 1563 1565 1567 1568 1571 1574 1576 1578 1579 1580 1581 1582 1584 1586 1588 1588 1589
1499 1502 1503 1506 1510 1513 1516 1517 1517 1518 1519 1522 1525 1530 1535 1536 1541 1543 1546 1547 1549 1550 1552 1555 1557 1559 1561 1562 1565 1566 1569 1572 1574 1575 1576 1577 1578 1579 1581 1583 1585 1587 1587
1494 1497 1499 1502 1506 1509 1511 1512 1514 1514 1515 1518 1521 1527 1533 1535 1538 1540 1543 1543 1545 1547 1549 1551 1554 1555 1558 1561 1563 1564 1567 1569 1570 1573 1574 1575 1575 1577 1578 1580 1582 1584 1584
1490 1493 1496 1498 1503 1505 1506 1508 1510 1512 1513 1516 1520 1525 1529 1528 1536 1538 1540 1541 1543 1544 1546 1548 1550 1552 1555 1557 1560 1562 1563 1564 1567 1569 1571 1572 1573 1574 1575 1577 1578 1580 1582
1485 1490 1493 1495 1500 1501 1503 1505 1507 1509 1511 1514 1518 1520 1521 1528 1532 1535 1537 1538 1540 1540 1542 1544 1547 1549 1552 1554 1557 1558 1559 1560 1563 1565 1566 1568 1569 1570 1571 1573 1575 1577 1578
1486 1488 1490 1493 1497 1499 1501 1503 1505 1507 1510 1513 1515 1517 1522 1525 1528 1530 1533 1535 1535 1537 1538 1540 1542 1546 1548 1551 1554 1555 1557 1558 1559 1561 1563 1564 1565 1567 1569 1570 1572 1574 1576
1483 1487 1487 1490 1493 1496 1498 1500 1503 1506 1508 1511 1513 1515 1518 1521 1523 1526 1529 1531 1533 1534 1534 1536 1539 1542 1545 1548 1550 1552 1553 1554 1556 1558 1560 1561 1562 1563 1566 1567 1569 1570 1571
1480 1481 1483 1487 1490 1494 1495 1496 1500 1503 1506 1508 1509 1511 1513 1515 1518 1521 1524 1526 1529 1531 1532 1533 1536 1539 1541 1544 1546 1548 1549 1551 1553 1554 1555 1557 1559 1561 1562 1563 1565 1566 1566
1475 1477 1479 1481 1485 1488 1490 1491 1495 1498 1501 1503 1505 1505 1507 1511 1512 1515 1518 1521 1523 1526 1528 1529 1531 1535 1538 1540 1542 1543 1544 1545 1547 1548 1550 1552 1556 1558 1559 1559 1559 1559 1559
1472 1473 1474 1475 1478 1482 1483 1482 1486 1490 1493 1495 1497 1500 1502 1504 1505 1508 1511 1513 1516 1519 1525 1526 1527 1529 1531 1533 1535 1536 1538 1539 1540 1542 1544 1546 1549 1552 1553 1554 1553 1552 1550
1466 1468 1470 1471 1471 1474 1477 1479 1480 1485 1488 1490 1493 1495 1497 1499 1502 1503 1505 1507 1510 1514 1518 1520 1521 1523 1524 1526 1528 1529 1530 1531 1532 1535 1536 1539 1541 1543 1545 1547 1547 1546 1546
1459 1461 1461 1460 1461 1459 1463 1468 1474 1476 1480 1486 1488 1490 1492 1494 1497 1498 1501 1502 1505 1508 1509 1512 1515 1518 1517 1518 1520 1520 1521 1522 1524 1527 1529 1531 1533 1535 1537 1539 1540 1539 1538
1452 1450 1447 1446 1458 1464 1462 1455 1460 1469 1469 1473 1477 1481 1483 1486 1489 1492 1494 1498 1498 1499 1501 1504 1506 1508 1510 1510 1510 1512 1514 1517 1518 1518 1520 1522 1525 1527 1529 1529 1530 1530 1531
1444 1437 1431 1433 1442 1431 1454 1455 1446 1453 1459 1461 1464 1469 1473 1476 1479 1482 1484 1485 1486 1488 1491 1494 1497 1500 1501 1504 1505 1507 1508 1510 1512 1513 1513 1515 1517 1519 1519 1521 1522 1523 1524
1442 1438 1431 1439 1441 1433 1442 1437 1443 1456 1461 1462 1455 1452 1459 1465 1467 1470 1472 1473 1474 1476 1478 1482 1485 1489 1492 1494 1496 1498 1499 1500 1503 1505 1506 1507 1507 1508 1509 1512 1513 1514 1516
1440 1438 1434 1431 1432 1431 1438 1433 1448 1442 1435 1466 1451 1446 1447 1451 1455 1461 1466 1469 1468 1469 1470 1472 1475 1478 1481 1483 1486 1488 1489 1490 1491 1493 1496 1497 1500 1499 1500 1502 1505 1506 1507
1438 1435 1434 1435 1435 1436 1439 1436 1426 1436 1425 1430 1438 1435 1439 1441 1444 1445 1450 1455 1460 1466 1467 1467 1468 1468 1469 1473 1476 1478 1481 1482 1483 1485 1487 1489 1491 1492 1493 1494 1495 1495 1496
1436 1434 1433 1433 1434 1432 1429 1426 1423 1415 1419 1431 1433 1428 1432 1430 1440 1439 1435 1438 1446 1450 1457 1460 1460 1461 1463 1463 1466 1468 1470 1470 1473 1477 1478 1480 1481 1482 1483 1484 1484 1484 1486
1430 1430 1431 1428 1427 1427 1425 1424 1423 1421 1417 1428 1417 1418 1405 1424 1437 1442 1435 1427 1430 1436 1441 1447 1450 1452 1454 1454 1458 1460 1460 1461 1464 1465 1468 1470 1472 1472 1473 1475 1475 1475 1477
1422 1422 1424 1423 1422 1422 1422 1421 1417 1414 1406 1400 1403 1410 1418 1432 1443 1424 1429 1420 1419 1424 1429 1432 1438 1440 1442 1444 1445 1449 1453 1456 1455 1455 1457 1460 1462 1463 1464 1465 1466 1465 1467
1414 1413 1413 1416 1413 1413 1412 1410 1407 1405 1402 1401 1402 1401 1399 1422 1424 1404 1397 1419 1412 1415 1421 1425 1431 1432 1432 1433 1436 1439 1444 1446 1448 1449 1449 1450 1451 1452 1454 1455 1457 1458 1458
Wind_Speed
26 29 24 22 23 17 21 21 20 17 18 22 21 20 15 13 14 16 13 11 8 12 9 14 10 14 8 7 11 6 11 7 8 21 16 10 8 8 10 4 4 5 8
27 28 29 22 18 19 17 21 19 18 19 23 21 19 18 16 17 16 12 10 11 10 12 12 8 15 13 9 11 10 4 8 13 22 21 16 10 15 11 3 6 5 4
28 31 29 25 25 22 22 23 19 21 19 20 25 22 18 17 17 15 13 11 10 9 13 9 9 14 18 12 14 10 7 4 11 12 16 12 11 13 9 7 1 5 12
29 30 29 29 24 24 23 27 24 21 23 25 24 23 20 19 17 16 15 15 11 13 12 9 11 14 15 17 15 11 10 11 10 8 7 14 12 14 10 7 6 14 15
29 30 30 29 23 23 22 24 25 21 25 24 25 22 20 18 16 15 16 16 13 15 10 11 11 14 15 15 15 15 13 11 16 12 13 17 12 18 14 10 8 9 10
30 29 29 31 26 26 26 23 26 23 22 25 24 21 20 17 15 15 16 15 15 15 13 13 15 13 14 14 14 19 15 13 15 16 15 18 14 18 10 15 11 14 13
26 28 28 25 22 26 25 24 25 22 21 23 24 24 23 20 23 19 15 15 14 15 15 15 14 14 15 17 17 18 18 17 17 19 18 17 19 20 16 15 15 10 14
28 30 32 27 25 21 24 26 22 18 20 21 22 24 20 25 21 19 17 15 13 14 14 13 15 14 12 17 20 18 19 19 22 21 18 19 18 19 21 19 20 18 15
30 32 31 29 25 21 23 22 18 18 19 17 18 22 23 22 21 17 18 20 15 15 15 14 21 17 19 16 20 18 19 21 20 19 24 23 21 20 16 20 21 18 20
36 32 28 29 24 22 19 19 18 18 18 17 19 21 23 24 22 17 16 18 19 18 16 16 22 19 18 18 18 18 18 18 17 18 20 18 16 15 15 17 14 14 11
30 28 27 26 22 21 17 18 18 19 18 18 20 23 24 24 20 19 18 19 17 16 17 19 20 21 17 20 21 21 19 15 15 15 17 17 17 17 16 18 18 17 15
28 26 25 23 20 20 20 19 19 20 20 21 20 19 23 23 23 20 20 21 21 19 18 16 17 19 18 20 22 20 18 16 14 15 16 17 17 17 16 16 19 20 21
26 28 25 24 21 22 24 21 23 21 22 26 24 22 21 23 23 22 20 22 25 23 18 16 15 14 18 20 21 22 20 20 16 15 18 16 14 12 11 13 15 19 23
27 29 26 25 24 26 25 25 26 28 28 23 25 25 24 23 23 26 25 24 28 26 24 23 22 20 17 19 21 23 23 23 23 23 21 19 18 18 18 20 23 23 22
27 29 27 27 27 29 29 29 31 32 31 30 28 28 26 28 29 25 26 27 29 29 26 26 26 25 27 26 25 26 27 27 28 28 28 26 23 23 25 25 25 26 29
27 29 28 27 27 30 31 30 29 30 30 29 27 27 27 25 28 28 24 24 27 28 31 31 27 28 31 31 30 31 31 30 31 30 30 30 30 30 29 29 30 31 31
29 30 31 33 33 33 35 31 30 32 31 32 33 31 31 27 28 27 22 18 18 26 35 35 35 28 29 26 26 28 30 32 30 29 31 32 32 32 31 32 32 33 36
31 32 35 38 37 32 34 33 33 30 33 36 39 38 36 36 29 30 26 23 24 26 30 35 38 36 34 33 31 29 29 30 31 33 32 31 31 32 33 35 36 37 34
25 30 28 30 34 36 40 37 33 34 34 32 34 40 42 38 40 32 34 35 35 35 35 37 36 35 36 36 34 32 31 32 33 34 35 34 33 33 36 36 36 36 34
28 32 36 30 29 28 26 20 19 15 30 36 34 39 36 45 47 45 44 44 43 42 40 39 38 36 36 34 34 35 35 36 37 37 37 36 36 37 36 35 36 35 34
23 23 28 32 34 32 38 34 34 30 48 46 41 40 41 37 44 53 51 50 49 46 43 40 36 34 37 39 39 37 37 38 39 38 39 40 40 36 35 35 35 33 33
17 18 19 24 22 22 26 24 33 53 75 63 30 40 44 42 35 38 52 54 53 51 48 44 42 39 33 31 34 37 41 38 38 39 38 37 38 37 36 37 34 32 33
20 21 21 15 16 24 28 27 26 39 56 59 42 28 29 43 41 41 37 44 53 52 52 50 47 43 38 35 34 32 32 34 35 37 36 36 36 35 35 36 35 34 36
25 25 21 24 19 18 24 31 35 47 56 55 54 42 23 26 33 45 45 36 34 38 40 41 41 42 45 41 37 35 36 35 33 33 31 33 36 35 36 36 36 35 34
26 28 25 24 22 17 17 24 29 39 48 51 50 45 45 44 42 65 46 34 29 31 30 29 30 29 26 27 28 32 37 33 32 33 33 34 34 35 36 35 34 34 33
33 28 29 22 26 26 25 25 20 19 29 30 32 32 34 46 65 47 53 35 32 30 25 25 28 26 23 24 26 27 28 28 26 34 35 35 35 38 39 35 35 35 34
Wind_Direction
213 218 229 230 234 236 213 234 235 240 225 218 220 225 234 233 209 196 210 227 218 185 202 229 219 189 194 187 211 191 226 240 195 168 188 201 179 192 184 211 5 146 54
218 214 219 224 235 241 243 232 234 235 228 229 219 217 225 225 203 200 208 211 207 216 229 237 212 201 197 186 189 204 201 209 195 172 184 192 216 200 226 221 245 256 283
213 216 215 219 217 223 240 250 234 231 236 235 223 223 217 211 204 202 200 209 206 218 244 241 211 198 201 200 194 203 221 209 182 179 183 192 210 207 227 181 204 271 254
212 212 213 216 217 221 223 242 250 231 234 234 222 220 211 205 201 197 200 199 216 227 247 224 206 211 199 208 201 196 196 183 182 184 172 185 184 206 226 181 161 226 251
214 210 217 217 216 222 223 232 243 245 241 236 220 214 213 204 202 200 202 205 218 229 234 214 217 213 213 214 198 185 192 194 189 181 180 189 189 197 212 218 244 235 244
211 209 213 217 224 223 227 229 236 246 246 233 216 207 207 194 214 209 203 201 214 224 217 211 211 224 218 199 190 187 192 186 185 196 195 204 212 219 216 211 229 235 219
211 205 214 229 231 226 227 232 238 247 228 221 214 205 209 199 212 208 205 208 221 214 217 219 215 226 213 200 195 194 189 187 194 194 199 208 209 215 223 212 211 226 221
211 209 216 227 230 235 223 234 243 230 221 216 214 211 208 212 207 201 207 215 223 218 215 207 196 212 221 210 204 203 199 200 204 205 206 206 220 223 233 217 214 217 218
210 215 220 228 228 228 225 235 224 215 215 218 205 201 205 214 203 203 206 210 217 220 217 202 203 207 222 221 205 209 208 213 214 216 222 232 235 241 237 223 218 223 225
217 221 220 223 228 225 229 217 212 215 210 205 199 203 212 207 201 207 205 211 211 221 220 213 218 217 218 218 202 205 215 215 221 219 224 232 230 225 215 213 203 213 197
218 219 215 220 225 223 218 208 209 205 199 198 196 196 199 195 205 208 209 210 225 223 220 214 212 219 210 206 205 213 219 227 225 225 227 227 224 222 217 212 207 198 208
215 217 215 216 215 214 208 206 205 196 192 189 193 198 203 212 212 218 216 209 208 230 223 222 216 212 207 208 214 221 212 219 226 224 223 223 223 226 221 222 218 219 213
214 216 216 214 208 212 208 202 197 203 205 201 206 210 215 216 214 219 223 210 210 224 223 221 219 214 210 214 217 223 218 213 220 226 223 231 241 245 255 247 236 234 233
217 218 217 210 207 207 215 206 204 207 208 220 211 217 224 227 225 222 220 213 219 221 221 208 212 233 230 230 228 228 227 223 220 222 232 231 231 242 241 242 253 261 260
222 221 215 214 213 208 220 215 214 217 223 218 228 230 230 222 230 229 221 220 223 220 217 215 213 216 225 231 233 235 234 230 229 228 227 226 230 231 236 242 249 255 259
218 219 213 215 218 211 223 219 226 224 228 237 229 230 238 247 235 240 241 228 228 226 219 215 223 227 235 239 240 242 243 235 234 236 236 233 230 230 235 237 244 250 250
222 219 215 218 214 221 210 222 217 224 220 231 241 226 228 235 237 240 244 227 220 225 226 225 222 228 242 243 243 244 243 246 244 240 242 241 239 236 237 239 241 245 248
235 228 222 221 219 221 225 218 223 221 227 228 232 234 229 227 229 232 234 228 222 227 231 230 231 225 225 237 244 244 248 247 247 253 252 249 248 247 245 243 244 244 245
250 255 245 242 239 252 227 226 217 222 222 234 241 238 236 229 227 229 225 229 226 228 233 233 232 230 232 231 236 240 245 245 247 251 255 257 256 252 250 250 251 250 250
274 264 263 256 260 263 259 221 206 260 234 230 228 238 240 231 227 227 222 222 227 233 237 238 237 238 235 237 242 238 239 243 244 244 246 253 257 258 258 255 252 250 249
279 276 259 253 267 267 273 271 274 284 274 262 230 232 243 241 234 228 230 230 232 234 236 241 247 244 243 243 236 236 244 245 246 250 248 250 248 250 257 258 251 248 252
280 293 282 271 273 264 259 253 284 276 272 286 246 234 234 241 237 235 235 234 239 242 243 244 244 246 250 244 244 243 238 238 246 248 248 252 250 247 250 248 252 257 255
274 281 290 290 282 263 262 262 283 285 261 272 256 275 239 231 243 238 238 240 242 241 244 244 241 238 237 246 255 254 251 253 254 247 248 251 247 248 248 247 250 252 249
271 269 271 283 286 281 250 245 244 246 250 262 267 257 269 300 265 245 243 240 243 244 246 248 247 247 242 236 233 245 256 261 259 259 260 253 249 250 249 247 248 248 248
256 257 262 265 275 265 260 274 264 266 267 270 274 263 253 255 249 259 229 230 229 236 234 239 249 249 240 240 241 241 238 243 256 260 255 248 248 250 245 246 249 246 246
270 265 259 267 261 270 267 271 288 296 267 271 269 257 254 269 243 256 255 217 211 219 227 238 246 248 260 266 269 266 264 263 254 246 251 245 243 245 244 242 242 247 249